Flag for Germany Weather past 2 weeks in Fehmarn (Puttgarden), Schleswig-Holstein, Germany

Now
60 °F

Low clouds.


Feels Like: 59 °F
Forecast: 59 / 66 °F
Wind: 7 mph from West

Location: Westermarkelsdorf

Current Time: Aug 28, 2015 at 9:46:30 AM

Latest Report: Aug 28, 2015 at 8:00 AM


Visibility: 6 mi

Pressure: 29.90 "Hg

Humidity: 92%

Dew point: 57 °F

Location of Fehmarn (Puttgarden)Location

Historic Weather in Fehmarn (Puttgarden) — Graph

°F

Fehmarn (Puttgarden) temperature yesterday

Maximum temperature yesterday: 68 °F (at 1:00 AM)
Minimum temperature yesterday: 58 °F (at 10:00 PM)
Average temperature yesterday: 64 °F

Past Weeks' High & Low Weather Summary

 TemperatureHumidityPressure
High73 °F (Aug 21, 3:00 PM)100% (Aug 16, 3:00 AM)30.32 "Hg (Aug 16, 3:00 AM)
Low54 °F (Aug 21, 4:00 AM)50% (Aug 21, 4:00 PM)29.65 "Hg (Aug 24, 9:00 PM)
Average65 °F83%29.97 "Hg
* Reported Aug 13 8:00 AM — Aug 28 8:00 AM, Fehmarn (Puttgarden), Weather by CustomWeather, © 2015

Note: Actual official high and low records may vary slightly from our data, if they occured in-between our weather recording intervals... More about our weather records

Advertising

Fehmarn (Puttgarden) weather history for previous 24 hours

 ConditionsComfort  
Time TempWeatherWind HumidityBarometerVisibility
8:00 AM
Fri, Aug 28
60 °FLow clouds.7 mph92%29.90 "Hg6 mi
7:00 AM60 °FOvercast.8 mph92%29.88 "Hg6 mi
6:00 AM59 °FFog.9 mph92%29.86 "Hg4 mi
5:00 AM59 °FPassing clouds.9 mph90%29.85 "Hg8 mi
4:00 AM59 °FOvercast.9 mph91%29.83 "Hg7 mi
3:00 AM58 °FLow clouds.7 mph91%29.82 "Hg8 mi
2:00 AM58 °FLight rain. Overcast.8 mph92%29.82 "Hg11 mi
1:00 AM58 °FOvercast.7 mph90%29.81 "Hg31 mi
10:00 PM
Thu, Aug 27
58 °FLight rain. Overcast.5 mph91%29.81 "Hg17 mi
9:00 PM58 °FLight rain. Overcast.6 mph93%29.82 "Hg4 mi
8:00 PM58 °FLight rain. Overcast.6 mph88%29.81 "Hg10 mi
7:00 PM61 °FLight rain. Overcast.9 mph74%29.81 "Hg12 mi
6:00 PM63 °FLight rain. Overcast.9 mph74%29.80 "Hg34 mi
4:00 PM66 °FScattered clouds.8 mph68%29.80 "Hg28 mi
3:00 PM66 °FPartly sunny.7 mph69%29.80 "Hg28 mi
2:00 PM67 °FPartly sunny.9 mph64%29.79 "Hg22 mi
1:00 PM68 °FOvercast.8 mph82%29.77 "Hg25 mi
12:00 PM67 °FOvercast.8 mph84%29.76 "HgN/A
11:00 AM64 °FOvercast.5 mph91%29.75 "HgN/A
10:00 AM62 °FLight rain. Overcast.5 mph94%29.76 "HgN/A
9:00 AM62 °FRain. Overcast.7 mph91%29.74 "HgN/A
Weather by CustomWeather, © 2015

See weather overviewHow to use our weather pages